| time (UTC) | temp F | wind direction | speed knots | gust knots | rain 1hr in | rain 24hr in | rain mn in | humidity % | barometer mb |
| 20260504050441 | 51 | 357 | 0.0 | 4.3 | 0.00 | 0.00 | 0.00 | 56 | 1008.2 |
| 20260504045455 | 51 | 144 | 0.9 | 4.3 | 0.00 | 0.00 | 0.00 | 56 | 1008.2 |
| 20260504044451 | 52 | 8 | 0.0 | 4.3 | 0.00 | 0.00 | 0.00 | 55 | 1008.2 |
| 20260504043506 | 52 | 153 | 0.9 | 5.2 | 0.00 | 0.00 | 0.00 | 54 | 1008.3 |
| 20260504042441 | 52 | 188 | 0.9 | 5.2 | 0.00 | 0.00 | 0.00 | 54 | 1008.3 |
| 20260504041413 | 53 | 151 | 0.0 | 4.3 | 0.00 | 0.00 | 0.00 | 53 | 1008.3 |
| 20260504040411 | 53 | 120 | 0.9 | 5.2 | 0.00 | 0.00 | 0.00 | 53 | 1008.3 |
| 20260504035356 | 53 | 217 | 0.9 | 5.2 | 0.00 | 0.00 | 0.00 | 53 | 1008.2 |
| 20260504034353 | 53 | 170 | 0.9 | 4.3 | 0.00 | 0.00 | 0.00 | 53 | 1008.2 |
| 20260504032135 | 54 | 190 | 0.0 | 5.2 | 0.00 | 0.00 | 0.00 | 53 | 1008.2 |
| 20260504031124 | 54 | 23 | 0.9 | 7.0 | 0.00 | 0.00 | 0.00 | 52 | 1008.2 |
| 20260504023922 | 54 | 51 | 0.9 | 4.3 | 0.00 | 0.00 | 0.00 | 53 | 1008.4 |
| 20260504022937 | 54 | 205 | 0.0 | 4.3 | 0.00 | 0.00 | 0.00 | 52 | 1008.6 |
| 20260504021925 | 53 | 13 | 0.0 | 4.3 | 0.00 | 0.00 | 0.00 | 53 | 1008.7 |
| 20260504020928 | 53 | 223 | 0.0 | 3.5 | 0.00 | 0.00 | 0.00 | 54 | 1008.6 |
| 20260504015943 | 53 | 30 | 0.0 | 3.5 | 0.00 | 0.00 | 0.00 | 55 | 1008.8 |
| 20260504014933 | 52 | 270 | 0.0 | 0.9 | 0.00 | 0.00 | 0.00 | 57 | 1008.7 |
| 20260504013926 | 52 | 105 | 0.0 | 0.0 | 0.00 | 0.00 | 0.00 | 57 | 1008.6 |
| 20260504011735 | 53 | 139 | 0.9 | 7.0 | 0.00 | 0.00 | 0.00 | 56 | 1009.0 |
| 20260504010751 | 53 | 300 | 0.9 | 7.0 | 0.00 | 0.00 | 0.00 | 55 | 1008.9 |
| 20260504005802 | 53 | 342 | 0.9 | 7.0 | 0.00 | 0.00 | 0.00 | 56 | 1008.8 |
| 20260504004746 | 53 | 154 | 0.9 | 9.6 | 0.00 | 0.00 | 0.00 | 56 | 1009.0 |
| 20260504003716 | 53 | 338 | 3.5 | 9.6 | 0.00 | 0.00 | 0.00 | 56 | 1009.2 |
| 20260504002654 | 53 | 351 | 0.9 | 7.0 | 0.00 | 0.00 | 0.00 | 56 | 1009.4 |
| 20260504001626 | 53 | 356 | 2.6 | 9.6 | 0.00 | 0.00 | 0.00 | 54 | 1009.2 |
| 20260504000554 | 54 | 356 | 3.5 | 9.6 | 0.00 | 0.00 | 0.00 | 53 | 1009.2 |
| 20260503235600 | 54 | 338 | 0.9 | 8.7 | 0.00 | 0.00 | 0.00 | 53 | 1009.0 |
| 20260503234556 | 54 | 16 | 2.6 | 11.3 | 0.00 | 0.00 | 0.00 | 51 | 1008.9 |
| 20260503233547 | 54 | 348 | 5.2 | 14.8 | 0.00 | 0.00 | 0.00 | 51 | 1009.0 |
| 20260503232559 | 55 | 309 | 3.5 | 14.8 | 0.00 | 0.00 | 0.00 | 49 | 1008.9 |
| 20260503231559 | 55 | 335 | 3.5 | 9.6 | 0.00 | 0.00 | 0.00 | 49 | 1008.8 |
| 20260503230533 | 55 | 92 | 4.3 | 14.8 | 0.00 | 0.00 | 0.00 | 47 | 1008.6 |
| 20260503225530 | 55 | 3 | 4.3 | 14.8 | 0.00 | 0.00 | 0.00 | 45 | 1008.5 |
| 20260503224505 | 56 | 356 | 2.6 | 9.6 | 0.00 | 0.00 | 0.00 | 43 | 1008.6 |
| 20260503223521 | 56 | 304 | 2.6 | 10.4 | 0.00 | 0.00 | 0.00 | 41 | 1008.5 |
| 20260503222451 | 56 | 2 | 2.6 | 10.4 | 0.00 | 0.00 | 0.00 | 42 | 1008.3 |
| 20260503221512 | 56 | 344 | 0.0 | 5.2 | 0.00 | 0.00 | 0.00 | 44 | 1008.5 |
| 20260503220514 | 56 | 357 | 0.9 | 7.0 | 0.00 | 0.00 | 0.00 | 44 | 1008.6 |
| 20260503214349 | 57 | 338 | 2.6 | 5.2 | 0.00 | 0.00 | 0.00 | 42 | 1008.8 |
| 20260503213334 | 57 | 252 | 0.9 | 4.3 | 0.00 | 0.00 | 0.00 | 42 | 1008.5 |
| 20260503212346 | 57 | 336 | 2.6 | 12.2 | 0.00 | 0.00 | 0.00 | 40 | 1008.3 |
| 20260503211401 | 58 | 2 | 3.5 | 12.2 | 0.00 | 0.00 | 0.00 | 38 | 1008.4 |
| 20260503210353 | 59 | 11 | 2.6 | 7.8 | 0.00 | 0.00 | 0.00 | 39 | 1008.5 |
| 20260503205405 | 59 | 37 | 2.6 | 6.1 | 0.00 | 0.00 | 0.00 | 38 | 1008.5 |
| 20260503204402 | 59 | 134 | 0.9 | 4.3 | 0.00 | 0.00 | 0.00 | 38 | 1008.6 |
| 20260503203408 | 59 | 303 | 0.9 | 7.8 | 0.00 | 0.00 | 0.00 | 39 | 1008.7 |
| 20260503201244 | 58 | 315 | 0.9 | 8.7 | 0.00 | 0.00 | 0.00 | 38 | 1009.0 |
| 20260503200235 | 57 | 327 | 2.6 | 8.7 | 0.00 | 0.00 | 0.00 | 40 | 1009.3 |
| 20260503195210 | 57 | 25 | 0.9 | 7.8 | 0.00 | 0.00 | 0.00 | 40 | 1009.4 |
| 20260503194158 | 57 | 347 | 0.9 | 7.0 | 0.00 | 0.00 | 0.00 | 39 | 1009.6 |
| 20260503193222 | 56 | 37 | 3.5 | 7.0 | 0.00 | 0.00 | 0.00 | 40 | 1009.8 |
| 20260503192240 | 56 | 353 | 0.9 | 7.0 | 0.00 | 0.00 | 0.00 | 38 | 1010.0 |
| 20260503191257 | 57 | 340 | 2.6 | 7.0 | 0.00 | 0.00 | 0.00 | 37 | 1010.3 |
| 20260503185126 | 56 | 353 | 3.5 | 8.7 | 0.00 | 0.00 | 0.00 | 39 | 1010.6 |
| 20260503184146 | 57 | 178 | 3.5 | 8.7 | 0.00 | 0.00 | 0.00 | 39 | 1010.6 |
| 20260503183119 | 56 | 200 | 3.5 | 8.7 | 0.00 | 0.00 | 0.00 | 38 | 1010.8 |
| 20260503182133 | 55 | 36 | 2.6 | 9.6 | 0.00 | 0.00 | 0.00 | 39 | 1010.8 |
| 20260503181059 | 54 | 340 | 2.6 | 9.6 | 0.00 | 0.00 | 0.00 | 43 | 1011.1 |
| 20260503180040 | 55 | 319 | 2.6 | 12.2 | 0.00 | 0.00 | 0.00 | 41 | 1010.9 |
| 20260503175015 | 56 | 354 | 3.5 | 12.2 | 0.00 | 0.00 | 0.00 | 41 | 1010.9 |
| 20260503174010 | 56 | 4 | 2.6 | 8.7 | 0.00 | 0.00 | 0.00 | 42 | 1011.1 |
| 20260503173018 | 55 | 346 | 2.6 | 7.8 | 0.00 | 0.00 | 0.00 | 42 | 1011.3 |
| 20260503170854 | 54 | 158 | 2.6 | 6.1 | 0.00 | 0.00 | 0.00 | 47 | 1011.3 |
| 20260503150605 | 51 | 169 | 0.0 | 3.5 | 0.00 | 0.00 | 0.00 | 51 | 1012.7 |
| 20260503131129 | 44 | 341 | 0.9 | 2.6 | 0.00 | 0.00 | 0.00 | 60 | 1013.7 |
| 20260503130122 | 43 | 345 | 0.0 | 2.6 | 0.00 | 0.00 | 0.00 | 61 | 1013.8 |
| 20260503110725 | 32 | 115 | 0.0 | 0.0 | 0.00 | 0.00 | 0.00 | 92 | 1013.6 |
| 20260503090203 | 31 | 169 | 0.0 | 0.0 | 0.00 | 0.00 | 0.00 | 88 | 1013.1 |
| 20260503081132 | 33 | 169 | 0.0 | 0.0 | 0.00 | 0.00 | 0.00 | 87 | 1013.3 |
| 20260503080105 | 33 | 169 | 0.0 | 0.0 | 0.00 | 0.00 | 0.00 | 86 | 1013.3 |
| 20260503072115 | 34 | 169 | 0.0 | 0.0 | 0.00 | 0.00 | 0.00 | 83 | 1013.3 |